Total_Precipitation_Accumulation
0.35 0.49 0.72 1.00 1.46 2.14 2.79 3.05 2.84 2.23 1.82 1.57 1.44 1.26 1.11 1.01 0.94 0.87 0.77 0.69 0.69 0.64 0.64 0.61 0.62 0.68 0.66 0.64 0.75 0.81 0.73 0.52 0.64 0.65 0.43 0.29 0.22 0.21 0.19 0.17 0.14 0.13 0.12
0.41 0.70 1.05 1.46 1.90 2.22 2.42 2.36 2.01 1.44 1.10 0.89 0.75 0.62 0.54 0.54 0.54 0.51 0.51 0.53 0.54 0.54 0.53 0.50 0.48 0.48 0.50 0.51 0.51 0.58 0.56 0.46 0.52 0.52 0.40 0.23 0.17 0.12 0.06 0.07 0.08 0.07 0.09
0.78 1.33 1.80 2.00 2.00 1.94 1.68 1.28 0.93 0.67 0.57 0.44 0.36 0.27 0.23 0.23 0.24 0.26 0.29 0.32 0.33 0.33 0.33 0.32 0.32 0.33 0.37 0.40 0.44 0.48 0.48 0.41 0.36 0.39 0.40 0.21 0.11 0.10 0.07 0.06 0.07 0.08 0.09
1.05 1.54 1.84 1.80 1.58 1.27 0.87 0.57 0.43 0.35 0.30 0.25 0.24 0.22 0.18 0.18 0.19 0.20 0.22 0.23 0.22 0.23 0.23 0.21 0.21 0.21 0.24 0.31 0.33 0.40 0.48 0.45 0.32 0.28 0.27 0.23 0.20 0.18 0.12 0.09 0.05 0.07 0.09
0.80 0.91 0.93 0.88 0.72 0.52 0.46 0.43 0.35 0.35 0.35 0.29 0.26 0.23 0.19 0.18 0.19 0.20 0.21 0.24 0.25 0.23 0.23 0.22 0.20 0.20 0.20 0.22 0.27 0.33 0.42 0.47 0.40 0.33 0.32 0.33 0.30 0.23 0.19 0.12 0.08 0.11 0.11
0.45 0.39 0.30 0.26 0.24 0.22 0.23 0.24 0.24 0.32 0.38 0.36 0.31 0.28 0.24 0.21 0.19 0.17 0.18 0.20 0.22 0.25 0.25 0.25 0.26 0.26 0.25 0.25 0.24 0.25 0.30 0.41 0.48 0.47 0.43 0.42 0.35 0.24 0.23 0.17 0.13 0.16 0.15
0.33 0.35 0.30 0.23 0.19 0.15 0.13 0.13 0.13 0.16 0.19 0.23 0.24 0.24 0.24 0.21 0.19 0.17 0.14 0.16 0.17 0.20 0.22 0.23 0.24 0.27 0.29 0.29 0.27 0.26 0.26 0.33 0.41 0.44 0.46 0.43 0.40 0.39 0.37 0.34 0.27 0.28 0.29
0.21 0.24 0.22 0.17 0.14 0.10 0.08 0.06 0.06 0.07 0.07 0.08 0.10 0.12 0.15 0.16 0.18 0.21 0.17 0.16 0.18 0.19 0.20 0.20 0.19 0.21 0.26 0.30 0.33 0.31 0.31 0.33 0.34 0.35 0.47 0.51 0.44 0.48 0.48 0.48 0.52 0.44 0.43
0.10 0.10 0.09 0.07 0.06 0.05 0.05 0.04 0.03 0.03 0.03 0.03 0.05 0.06 0.09 0.12 0.15 0.17 0.17 0.17 0.21 0.21 0.20 0.20 0.20 0.20 0.22 0.26 0.30 0.31 0.33 0.35 0.36 0.38 0.47 0.54 0.60 0.60 0.54 0.56 0.58 0.58 0.53
0.06 0.06 0.05 0.04 0.03 0.02 0.02 0.02 0.02 0.02 0.01 0.01 0.02 0.02 0.04 0.07 0.10 0.10 0.12 0.14 0.16 0.18 0.19 0.19 0.18 0.18 0.20 0.21 0.24 0.26 0.33 0.39 0.44 0.51 0.56 0.58 0.63 0.71 0.62 0.61 0.60 0.59 0.61
0.03 0.03 0.02 0.02 0.02 0.01 0.01 0.02 0.02 0.02 0.02 0.01 0.01 0.01 0.03 0.04 0.06 0.10 0.13 0.14 0.13 0.12 0.13 0.14 0.16 0.17 0.20 0.23 0.28 0.31 0.35 0.46 0.58 0.66 0.70 0.73 0.74 0.76 0.74 0.77 0.71 0.61 0.64
0.01 0.01 0.01 0.01 0.01 0.01 0.01 0.02 0.02 0.02 0.02 0.02 0.02 0.01 0.01 0.02 0.04 0.07 0.10 0.11 0.11 0.11 0.11 0.12 0.13 0.13 0.13 0.19 0.28 0.39 0.41 0.44 0.52 0.74 0.96 0.98 0.98 0.88 0.80 0.87 0.81 0.71 0.77
0.00 0.00 0.00 0.01 0.01 0.01 0.02 0.02 0.02 0.01 0.01 0.01 0.01 0.01 0.01 0.01 0.02 0.03 0.05 0.07 0.09 0.11 0.11 0.12 0.12 0.11 0.10 0.12 0.20 0.32 0.37 0.46 0.59 0.76 0.88 1.01 1.12 1.01 0.91 0.88 0.86 0.84 0.88
0.00 0.00 0.00 0.00 0.00 0.01 0.01 0.01 0.00 0.00 0.00 0.00 0.01 0.01 0.02 0.02 0.02 0.02 0.03 0.04 0.06 0.09 0.11 0.13 0.13 0.13 0.11 0.11 0.16 0.24 0.31 0.43 0.62 0.67 0.62 0.73 0.99 1.09 1.00 0.89 0.83 0.84 0.85
0.00 0.00 0.00 0.01 0.01 0.01 0.01 0.02 0.02 0.03 0.03 0.04 0.04 0.05 0.05 0.06 0.06 0.06 0.06 0.06 0.07 0.08 0.11 0.14 0.15 0.14 0.12 0.10 0.17 0.25 0.21 0.26 0.34 0.37 0.36 0.42 0.61 0.89 1.05 1.00 0.89 0.85 0.79
0.03 0.04 0.04 0.05 0.04 0.04 0.04 0.04 0.04 0.04 0.05 0.05 0.04 0.04 0.05 0.05 0.06 0.06 0.06 0.06 0.08 0.11 0.16 0.19 0.19 0.19 0.13 0.11 0.13 0.15 0.17 0.19 0.22 0.23 0.25 0.25 0.28 0.40 0.64 0.85 0.96 0.99 0.90
0.10 0.07 0.05 0.03 0.02 0.01 0.01 0.01 0.01 0.01 0.02 0.02 0.03 0.04 0.05 0.05 0.06 0.06 0.07 0.09 0.12 0.16 0.21 0.24 0.26 0.27 0.26 0.18 0.12 0.09 0.12 0.16 0.19 0.22 0.23 0.18 0.16 0.23 0.30 0.44 0.59 0.75 0.81
0.03 0.01 0.00 0.00 0.00 0.00 0.00 0.01 0.01 0.01 0.02 0.02 0.03 0.04 0.06 0.07 0.08 0.11 0.13 0.17 0.20 0.22 0.26 0.29 0.31 0.36 0.35 0.25 0.17 0.13 0.11 0.16 0.20 0.23 0.23 0.20 0.18 0.19 0.24 0.30 0.34 0.42 0.51
0.00 0.00 0.00 0.00 0.00 0.01 0.01 0.01 0.01 0.01 0.02 0.04 0.07 0.09 0.11 0.13 0.16 0.19 0.23 0.28 0.31 0.30 0.31 0.32 0.37 0.40 0.43 0.33 0.21 0.17 0.19 0.23 0.23 0.23 0.23 0.23 0.22 0.19 0.16 0.23 0.28 0.31 0.36
0.00 0.00 0.00 0.00 0.01 0.01 0.01 0.02 0.02 0.03 0.04 0.05 0.08 0.11 0.17 0.22 0.26 0.30 0.34 0.37 0.40 0.39 0.38 0.36 0.40 0.44 0.50 0.43 0.25 0.20 0.24 0.31 0.31 0.34 0.32 0.25 0.24 0.22 0.14 0.17 0.22 0.25 0.29
0.00 0.00 0.00 0.00 0.01 0.02 0.03 0.04 0.05 0.06 0.06 0.07 0.09 0.12 0.18 0.28 0.31 0.36 0.41 0.45 0.47 0.48 0.48 0.45 0.45 0.49 0.52 0.52 0.32 0.23 0.25 0.35 0.44 0.45 0.43 0.38 0.26 0.18 0.14 0.16 0.21 0.20 0.25
0.00 0.00 0.00 0.00 0.01 0.03 0.06 0.08 0.09 0.09 0.10 0.12 0.14 0.15 0.21 0.29 0.32 0.42 0.46 0.51 0.55 0.57 0.58 0.59 0.57 0.56 0.55 0.51 0.42 0.27 0.22 0.33 0.51 0.58 0.58 0.55 0.41 0.27 0.20 0.17 0.17 0.16 0.19
0.00 0.00 0.00 0.01 0.02 0.04 0.08 0.12 0.12 0.13 0.15 0.17 0.17 0.21 0.25 0.37 0.51 0.55 0.53 0.57 0.61 0.61 0.62 0.66 0.69 0.69 0.68 0.58 0.43 0.32 0.23 0.29 0.46 0.61 0.68 0.61 0.50 0.42 0.31 0.25 0.20 0.17 0.16
0.00 0.00 0.01 0.02 0.04 0.05 0.08 0.12 0.15 0.19 0.22 0.22 0.21 0.23 0.29 0.42 0.66 0.79 0.73 0.67 0.67 0.66 0.67 0.65 0.67 0.72 0.76 0.71 0.55 0.40 0.30 0.34 0.47 0.55 0.56 0.56 0.56 0.55 0.50 0.38 0.29 0.20 0.19
0.01 0.01 0.03 0.05 0.06 0.07 0.09 0.13 0.18 0.25 0.28 0.26 0.24 0.25 0.32 0.46 0.67 0.84 0.83 0.70 0.68 0.66 0.65 0.65 0.65 0.63 0.63 0.60 0.53 0.45 0.44 0.49 0.57 0.58 0.64 0.62 0.64 0.63 0.61 0.53 0.41 0.32 0.29
0.03 0.04 0.06 0.08 0.10 0.12 0.15 0.17 0.22 0.29 0.35 0.33 0.29 0.30 0.35 0.45 0.65 0.88 0.95 0.75 0.58 0.55 0.53 0.48 0.46 0.45 0.38 0.35 0.36 0.34 0.34 0.40 0.46 0.48 0.62 0.69 0.69 0.69 0.67 0.63 0.54 0.46 0.38